Regional Weather Roundup
Issued by NWS

Home | Current Version | Previous Version | Text Only | Print | Product List | Glossary Off
Versions: 1 2 3 4 5 6 7 8 9 10 11 12 13 14 15 16 17 18 19 20 21 22 23 24 25 26 27 28 29 30 31 32 33 34 35 36 37 38 39 40 41 42 43 44 45 46 47 48 49 50

000
ASUS43 KFSD 280010
RWRSD

WEATHER ROUNDUP FOR SOUTH DAKOTA
NATIONAL WEATHER SERVICE SIOUX FALLS SD
700 PM CDT FRI MAY 27 2016

NOTE: "FAIR" INDICATES FEW OR NO CLOUDS BELOW 12,000 FEET WITH NO
SIGNIFICANT WEATHER AND/OR OBSTRUCTIONS TO VISIBILITY.


SDZ001>005-009-010-012>017-280100-
NORTHWEST AND NORTH CENTRAL SOUTH DAKOTA

CITY           SKY/WX    TMP DP  RH WIND       PRES   REMARKS
BUFFALO          N/A     64  46  52 SE5       29.76S
FAITH            N/A     61  48  62 SW7       29.81F
MOBRIDGE       CLOUDY    71  47  42 SW5       29.75F
$$

SDZ012>016-024>037-041>051-057-063-072>074-280100-
SOUTHWEST AND SOUTH CENTRAL SOUTH DAKOTA

CITY           SKY/WX    TMP DP  RH WIND       PRES   REMARKS
RAPID CTY ARPT MOSUNNY   61  48  62 SE8       29.83F
PIERRE         CLOUDY    69  52  54 VRB6      29.76F
CUSTER         CLOUDY    51  43  74 VRB3      29.90S
ELLSWORTH AFB  MOSUNNY   61  50  66 SE8       29.83S
PHILIP         SUNNY     65  48  54 W6        29.80F
PINE RIDGE     CLOUDY    63  43  48 CALM      29.83F
WINNER         FAIR      70  52  52 N14       29.75F
$$

SDZ004>011-016>023-039-040-280100-
NORTHEAST SOUTH DAKOTA

CITY           SKY/WX    TMP DP  RH WIND       PRES   REMARKS
ABERDEEN       CLOUDY    65  58  78 W5        29.75F
WATERTOWN      SUNNY     69  54  58 NW7       29.73F
BROOKINGS      SUNNY     70  56  61 N7        29.72S
SISSETON         N/A     68  56  65 N8        29.74R
$$

SDZ017-020-022-023-036>040-048>070-280100-
SOUTHEAST SOUTH DAKOTA

CITY           SKY/WX    TMP DP  RH WIND       PRES   REMARKS
SIOUX FALLS    CLOUDY    73  59  61 NE8       29.70F
HURON          SUNNY     69  60  73 N9        29.72F
CHAMBERLAIN    SUNNY     70  56  61 N8        29.75S
MITCHELL       PTSUNNY   72  58  61 N5        29.72F
YANKTON        MOSUNNY   73  59  60 W5        29.70R
$$

ABBREVIATIONS USED IN REMARKS
   TC - TEMPERATURE IN CELSIUS
  WCI - WIND CHILL INDEX
   HX - HEAT INDEX
  VSB - VISIBILITY





USA.gov is the U.S. government's official web portal to all federal, state and local government web resources and services.